Flag for U.S.A. Weather past 2 weeks in Bowling Green, Kentucky, U.S.A.

Now
65 °F

Fog.


Feels Like: 65 °F
Forecast: 71 / 90 °F
Wind: No wind

Location: Glasgow Municipal Airport

Current Time: Sep 3, 2015 at 4:53:35 AM

Latest Report: Sep 3, 2015 at 4:15 AM


Visibility: 4 mi

Pressure: 30.02 "Hg

Humidity: 100%

Dew point: 65 °F

Location of Bowling GreenLocation

Historic Weather in Bowling Green — Graph

°F

Bowling Green temperature yesterday

Maximum temperature yesterday: 91 °F (at 1:55 PM)
Minimum temperature yesterday: 64 °F (at 6:35 AM)
Average temperature yesterday: 77 °F

Past Weeks' High & Low Weather Summary

 TemperatureHumidityPressure
High91 °F (Sep 2, 1:55 PM)100% (Aug 19, 3:15 AM)30.18 "Hg (Aug 19, 3:15 AM)
Low49 °F (Aug 25, 6:15 AM)30% (Aug 22, 3:55 PM)29.84 "Hg (Aug 19, 3:35 PM)
Average71 °F78%30.07 "Hg
* Reported Aug 19 3:15 AM — Sep 3 3:35 AM, Bowling Green, Weather by CustomWeather, © 2015

Note: Actual official high and low records may vary slightly from our data, if they occured in-between our weather recording intervals... More about our weather records

Advertising

Bowling Green weather history for previous 24 hours

 ConditionsComfort  
Time TempWeatherWind HumidityBarometerVisibility
3:35 AM
Thu, Sep 3
65 °FFog.No wind100%30.03 "Hg4 mi
3:15 AM66 °FClear.No wind100%30.02 "Hg7 mi
2:55 AM65 °FFog.No wind100%30.02 "Hg5 mi
2:15 AM65 °FFog.No wind100%30.03 "Hg5 mi
1:55 AM66 °FClear.No wind100%30.03 "Hg7 mi
1:35 AM66 °FFog.No wind100%30.03 "Hg5 mi
1:15 AM67 °FClear.No wind100%30.04 "Hg7 mi
12:55 AM67 °FClear.No wind100%30.04 "Hg7 mi
12:35 AM67 °FClear.No wind100%30.04 "Hg7 mi
12:15 AM67 °FClear.No wind100%30.04 "Hg7 mi
11:55 PM
Wed, Sep 2
68 °FClear.No wind100%30.04 "Hg7 mi
11:35 PM68 °FClear.No wind100%30.04 "Hg10 mi
10:15 PM70 °FClear.No wind99%30.04 "Hg10 mi
9:55 PM72 °FClear.No wind85%30.04 "Hg10 mi
9:35 PM71 °FClear.No wind99%30.04 "Hg10 mi
9:15 PM73 °FClear.No wind80%30.04 "Hg10 mi
8:55 PM72 °FClear.No wind82%30.04 "Hg10 mi
8:35 PM74 °FClear.No wind77%30.03 "HgN/A
8:15 PM74 °FClear.No wind77%30.02 "Hg10 mi
7:55 PM77 °FClear.No wind72%30.01 "Hg10 mi
7:35 PM79 °FClear.No wind67%30.01 "Hg10 mi
7:15 PM79 °FClear.No wind68%30.01 "Hg10 mi
6:55 PM81 °FSunny.3 mph63%30.01 "Hg10 mi
6:35 PM84 °FSunny.No wind51%30.02 "Hg10 mi
6:15 PM85 °FSunny.No wind50%30.02 "Hg10 mi
5:55 PM88 °FSunny.No wind42%30.03 "Hg10 mi
5:15 PM89 °FSunny.No wind40%30.02 "Hg10 mi
4:55 PM90 °FScattered clouds.No wind39%30.03 "Hg10 mi
4:35 PM90 °FSunny.No wind38%30.03 "Hg10 mi
4:15 PM90 °FSunny.3 mph38%30.04 "Hg10 mi
3:55 PM90 °FScattered clouds.3 mph39%30.04 "Hg10 mi
3:35 PM90 °FScattered clouds.3 mph41%30.04 "Hg10 mi
3:15 PM90 °FScattered clouds.No wind37%30.05 "Hg10 mi
2:55 PM90 °FPartly sunny.No wind39%30.07 "Hg10 mi
2:35 PM88 °FPartly sunny.No wind42%30.08 "Hg10 mi
2:15 PM90 °FScattered clouds.No wind38%30.08 "Hg10 mi
1:55 PM91 °FSunny.7 mph40%30.09 "Hg10 mi
1:35 PM90 °FScattered clouds.No wind42%30.10 "Hg10 mi
1:15 PM90 °FScattered clouds.6 mph43%30.10 "Hg10 mi
12:55 PM90 °FSunny.5 mph42%30.10 "Hg10 mi
12:35 PM89 °FSunny.3 mph42%30.11 "Hg10 mi
12:15 PM88 °FScattered clouds.No wind47%30.11 "Hg10 mi
11:55 AM89 °FBroken clouds.No wind42%30.12 "Hg10 mi
11:35 AM88 °FPartly sunny.No wind44%30.13 "Hg10 mi
11:15 AM87 °FSunny.3 mph48%30.14 "Hg10 mi
10:55 AM86 °FSunny.No wind47%30.15 "Hg10 mi
10:35 AM85 °FSunny.No wind52%30.15 "Hg10 mi
10:15 AM84 °FSunny.No wind54%30.16 "Hg10 mi
9:55 AM82 °FSunny.No wind57%30.16 "Hg10 mi
9:35 AM81 °FSunny.No wind63%30.15 "Hg10 mi
9:15 AM79 °FSunny.No wind68%30.15 "Hg10 mi
8:55 AM77 °FSunny.No wind75%30.15 "Hg10 mi
8:35 AM74 °FSunny.No wind89%30.15 "Hg10 mi
8:15 AM72 °FSunny.No wind99%30.16 "Hg7 mi
7:55 AMN/ASunny.No windN/A30.16 "Hg5 mi
7:35 AMN/ASunny.No windN/A30.16 "Hg5 mi
7:15 AMN/ASunny.No windN/A30.16 "Hg5 mi
6:55 AMN/AFog.No windN/A30.15 "Hg2 mi
6:35 AM64 °FFog.No wind100%30.14 "Hg1 mi
6:15 AM64 °FFog.No wind100%30.13 "Hg2 mi
5:55 AM64 °FFog.No wind100%30.13 "Hg3 mi
5:35 AM64 °FFog.No wind100%30.13 "Hg4 mi
5:15 AM65 °FFog.No wind100%30.12 "Hg4 mi
4:55 AM65 °FFog.No wind100%30.11 "Hg4 mi
4:35 AM65 °FFog.No wind100%30.11 "Hg5 mi
4:15 AM65 °FFog.No wind100%30.11 "Hg4 mi
Weather by CustomWeather, © 2015

See weather overviewHow to use our weather pages